Ogden, UT

1:39 PM MDT on July 25, 2017 (GMT -0600)
Ogden-Hinckley

Weather History for KOGD - August, 2013

Change the Weather History Date:

Friday, August 16, 2013

  Actual Average Record
Temperature  
Mean Temperature 80 °F -  
Max Temperature 95 °F 88 °F 100 °F (1962)
Min Temperature 64 °F 57 °F 44 °F (1960)
Cooling Degree Days 14    
Growing Degree Days 30 (Base 50)    
Moisture  
Dew Point 32 °F    
Average Humidity 19    
Maximum Humidity 25    
Minimum Humidity 11    
Precipitation  
Precipitation 0.00 in - - ()
Sea Level Pressure  
Sea Level Pressure 29.89 in    
Wind  
Wind Speed 8 mph (South)    
Max Wind Speed 13 mph    
Max Gust Speed -    
Visibility 10 miles    
Events      
Averages and records for this station are not official NWS values.
T = Trace of Precipitation, MM = Missing Value Source: NWS Daily Summary

Daily Weather History Graph

Daily Weather History Graph

Search for Another Location

Airport or City:

Trip Planner

Search our weather history database for the weather conditions in past years. The results will help you decide how hot, cold, wet, or windy it might be!

Date:

Astronomy

Aug. 16, 2013 Rise Set
Actual Time 6:38 AM MDT 8:24 PM MDT
Civil Twilight 6:09 AM MDT 8:54 PM MDT
Nautical Twilight 5:33 AM MDT 9:30 PM MDT
Astronomical Twilight 4:54 AM MDT 10:08 PM MDT
Moon 4:48 PM MDT (8/16) 1:43 AM MDT (8/16)
Length of Visible Light 14h 45m
Length of Day
13h 46m
Waxing Gibbous, 75% of the Moon is Illuminated
Aug 16
Waxing Gibbous
Aug 20
Full
Aug 28
Last Quarter
Sep 5
New
Sep 12
First Quarter

Hourly Weather History & Observations

Time (MDT) Temp. Dew Point Humidity Pressure Visibility Wind Dir Wind Speed Gust Speed Precip Events Conditions
12:53 AM 73.0 °F 27.0 °F 18% 29.84 in 10.0 mi SSE 10.4 mph - N/A   Clear
1:53 AM 69.1 °F 27.0 °F 21% 29.85 in 10.0 mi SSW 6.9 mph - N/A   Clear
2:53 AM 68.0 °F 27.0 °F 21% 29.85 in 10.0 mi SSW 5.8 mph - N/A   Clear
3:53 AM 66.9 °F 26.1 °F 21% 29.86 in 10.0 mi South 5.8 mph - N/A   Clear
4:53 AM 64.0 °F 27.0 °F 25% 29.88 in 10.0 mi South 5.8 mph - N/A   Clear
5:53 AM 64.9 °F 27.0 °F 24% 29.89 in 10.0 mi South 9.2 mph - N/A   Clear
6:53 AM 64.0 °F 27.0 °F 25% 29.92 in 10.0 mi SSE 9.2 mph - N/A   Clear
7:53 AM 66.0 °F 27.0 °F 23% 29.93 in 10.0 mi South 12.7 mph - N/A   Clear
8:53 AM 72.0 °F 30.9 °F 22% 29.95 in 10.0 mi SSE 11.5 mph - N/A   Clear
9:53 AM 77.0 °F 32.0 °F 19% 29.96 in 10.0 mi SSE 8.1 mph - N/A   Clear
10:53 AM 84.0 °F 34.0 °F 17% 29.94 in 10.0 mi SSE 5.8 mph - N/A   Clear
11:53 AM 90.0 °F 37.9 °F 16% 29.93 in 10.0 mi SSE 11.5 mph - N/A   Clear
12:53 PM 91.9 °F 30.0 °F 11% 29.91 in 10.0 mi SSW 6.9 mph - N/A   Clear
1:53 PM 93.9 °F 34.0 °F 12% 29.91 in 10.0 mi West 5.8 mph - N/A   Clear
2:53 PM 95.0 °F 32.0 °F 11% 29.90 in 10.0 mi SSW 8.1 mph - N/A   Clear
3:53 PM 95.0 °F 33.1 °F 11% 29.88 in 10.0 mi West 9.2 mph - N/A   Clear
4:53 PM 91.9 °F 33.1 °F 12% 29.89 in 10.0 mi WSW 4.6 mph - N/A   Clear
5:53 PM 91.9 °F 30.0 °F 11% 29.87 in 10.0 mi SW 3.5 mph - N/A   Clear
6:53 PM 93.0 °F 32.0 °F 12% 29.86 in 10.0 mi Calm Calm - N/A   Clear
7:53 PM 91.0 °F 35.1 °F 14% 29.85 in 10.0 mi ESE 3.5 mph - N/A   Clear
8:53 PM 82.0 °F 43.0 °F 25% 29.87 in 10.0 mi SSE 4.6 mph - N/A   Clear
9:53 PM 79.0 °F 39.9 °F 25% 29.87 in 10.0 mi South 6.9 mph - N/A   Clear
10:53 PM 77.0 °F 37.0 °F 24% 29.86 in 10.0 mi South 9.2 mph - N/A   Clear
11:53 PM 75.9 °F 37.0 °F 24% 29.85 in 10.0 mi South 9.2 mph - N/A   Clear